Location: B�retswil
(47.3376°N, 8.8534°E)
Time: 01:07:14
(UTC+00:00)

Resurs 01 Rocket - Pass Details

Date: 03 March 2021
Orbit: 635 x 643 km, 98.0° (Epoch: 12 April)

Event Time Altitude Azimuth Distance (km) Brightness Sun altitude
Exits shadow 20:50:14 20° 310° (NW) 1,494 4.1 -35.9°
Drops below altitude 10° 20:51:56 10° 326° (NW) 2,033 4.9 -36.2°
Sets 20:54:23 0° 338° (NNW) 2,948 5.8 -36.5°
